Wind_Speed
16 16 15 14 15 16 16 17 18 19 19 20 20 20 21 21 22 23 24 26 28 32 33 35 37 38 41 43 45 46 45 46 47 47 46 46 45 46 45 44 45 46 44 44
14 14 13 13 14 13 13 13 14 14 14 15 16 16 17 18 19 19 20 21 23 27 29 29 31 33 36 39 42 43 43 43 44 45 46 45 45 44 44 43 43 44 43 43
12 12 13 12 12 12 13 12 11 11 12 13 13 13 13 14 15 16 17 18 20 24 26 28 28 30 32 35 38 40 40 40 42 42 42 44 44 44 44 43 43 44 44 43
10 10 11 10 10 10 10 9 9 8 9 9 10 10 10 12 13 14 15 17 17 19 22 24 26 27 29 31 33 34 36 38 39 39 40 41 42 44 44 42 41 41 42 42
9 9 9 8 9 9 8 7 7 7 7 7 7 7 8 10 10 10 12 14 15 16 17 19 21 21 24 27 28 30 32 34 36 36 36 38 39 40 41 41 41 40 41 42
7 7 8 8 8 8 7 6 6 6 5 5 4 5 6 7 7 7 9 10 11 12 13 14 15 17 20 21 23 26 27 29 30 31 32 34 35 36 38 39 41 41 41 41
6 6 7 8 8 7 7 6 5 5 4 3 3 3 3 4 4 4 6 8 8 9 10 9 11 13 15 17 19 21 22 23 25 26 27 29 31 33 34 36 38 39 39 38
7 7 7 7 7 7 7 6 5 3 3 2 3 3 2 2 2 2 4 6 6 8 8 8 8 10 12 13 14 15 18 20 21 23 25 26 27 29 32 34 37 38 39 39
6 6 6 7 8 8 7 5 4 3 3 2 2 2 2 2 2 3 4 6 7 7 7 7 7 8 9 12 14 15 15 17 19 22 23 25 26 27 28 30 32 34 36 37
6 6 6 7 7 7 5 4 4 3 3 2 2 2 2 2 3 4 6 7 7 6 6 7 7 7 8 9 11 13 14 14 16 19 22 24 25 25 26 28 30 32 34 35
5 6 6 7 7 6 6 5 5 4 3 3 2 2 2 3 4 5 5 6 7 6 6 5 5 6 7 8 9 10 11 13 15 18 20 22 24 24 25 28 30 31 34 37
5 6 6 6 6 5 6 6 5 5 4 4 3 2 3 3 4 4 4 5 6 5 4 5 4 4 4 4 6 8 8 10 13 16 18 19 22 24 25 27 29 30 33 36
5 5 5 5 4 4 5 5 5 5 5 4 4 3 4 4 4 4 4 4 5 5 4 4 3 2 2 3 5 7 8 9 11 13 16 18 20 22 24 27 28 30 31 33
4 4 3 3 3 3 4 4 4 5 5 5 4 3 4 3 3 3 3 4 3 3 4 4 4 3 4 5 6 8 9 9 11 12 14 17 20 22 24 25 27 28 30 32
3 3 3 3 2 2 3 4 4 4 4 5 4 4 4 4 3 3 4 5 4 4 4 4 4 5 6 7 7 7 8 9 11 12 14 15 18 20 22 24 26 27 29 30
3 3 3 3 3 4 4 5 5 4 5 5 5 5 5 4 3 4 4 5 5 4 4 4 4 5 6 6 7 7 7 7 8 9 12 14 16 18 20 23 26 28 29 29
4 4 4 4 4 4 4 4 5 5 5 5 5 5 5 4 4 4 3 3 4 4 5 5 6 6 6 6 7 7 7 8 10 12 13 15 17 19 22 24 26 27 28 29
6 6 6 5 5 4 4 4 4 5 6 6 6 6 7 6 5 5 5 5 5 5 5 6 6 7 6 6 7 8 9 10 11 12 15 16 18 20 22 24 24 25 27 28
9 9 8 7 6 6 5 5 6 6 7 7 8 8 8 8 7 7 7 7 7 7 7 7 7 7 7 8 9 10 11 12 13 14 16 18 19 21 22 23 23 24 25 27
12 11 10 10 9 8 8 7 7 7 7 8 9 9 10 10 9 8 9 9 9 8 8 8 8 8 8 9 10 11 12 13 15 16 17 19 21 22 23 23 24 25 26 28
14 14 13 12 12 11 10 10 9 9 9 9 9 9 10 10 9 9 9 9 9 9 9 9 9 10 11 12 13 13 15 16 17 19 20 21 22 24 24 24 25 26 27 29
17 17 16 15 14 14 13 13 12 12 11 11 11 11 11 11 11 11 11 11 12 12 12 12 12 13 14 15 16 17 18 19 21 22 23 24 25 26 26 27 27 27 28 30
20 20 19 19 17 17 17 16 16 15 15 14 14 14 13 13 13 13 13 13 13 13 14 14 14 16 16 17 18 19 20 22 23 24 25 27 27 27 28 29 29 30 31 32
23 23 22 22 21 21 20 19 19 19 18 17 17 17 16 15 15 15 15 15 15 15 15 16 16 17 18 19 20 21 22 24 25 27 29 29 29 29 30 31 31 32 33 33
25 26 25 25 25 24 23 22 22 21 21 21 20 20 20 19 19 19 18 17 18 18 18 19 19 20 21 22 23 24 25 26 27 29 30 31 32 31 32 33 33 33 34 34
27 28 28 27 27 27 25 25 23 23 22 22 22 22 22 22 21 21 20 20 20 20 21 21 21 22 23 24 25 26 27 29 30 31 32 33 34 34 34 35 35 35 36 36
Wind_Direction
229 231 233 238 244 247 248 245 244 245 247 247 248 248 246 249 249 246 244 242 240 238 234 234 235 235 235 233 231 233 234 235 236 237 238 239 240 238 239 241 241 241 243 246
228 230 231 235 240 243 242 239 238 238 240 244 245 245 246 245 243 240 241 241 240 239 233 233 236 234 233 233 231 233 235 236 236 237 238 239 238 237 237 238 239 239 242 245
226 228 229 233 240 242 242 235 228 231 240 248 245 241 241 240 241 239 237 238 240 239 237 237 235 234 234 233 233 233 233 235 237 237 238 238 238 238 237 238 241 241 242 245
222 223 223 227 229 229 227 222 222 231 238 241 242 243 234 233 235 236 234 233 234 237 235 232 233 235 236 236 235 235 235 235 236 237 238 239 239 238 237 238 240 241 242 245
214 213 212 210 210 208 209 207 207 218 229 234 238 243 225 223 231 233 232 229 229 233 232 230 231 234 235 233 232 232 233 234 237 238 237 237 239 239 238 238 239 242 244 245
195 192 192 192 196 198 197 199 204 210 221 221 216 232 219 222 229 229 226 224 219 222 224 224 225 227 227 227 229 232 232 233 236 237 238 238 240 239 238 239 242 243 245 247
181 180 184 189 191 192 188 188 188 192 201 209 213 229 219 220 230 228 215 216 216 213 213 219 223 224 225 223 225 231 235 234 237 237 239 240 240 240 240 242 245 244 245 249
177 179 184 189 183 176 179 185 183 187 186 194 206 212 205 208 210 198 199 201 203 201 198 206 214 216 226 228 229 232 232 235 237 237 236 239 242 244 245 246 246 246 246 248
182 175 180 180 175 170 176 179 176 184 183 179 170 163 136 148 173 164 166 173 177 189 191 192 198 211 224 225 229 233 231 237 239 236 236 240 244 247 249 249 251 252 252 253
179 179 176 173 173 175 181 187 188 191 211 201 162 158 141 138 154 153 149 158 166 186 183 176 185 202 213 224 232 237 238 241 242 242 244 245 246 249 250 253 255 257 258 259
173 168 166 171 180 185 193 201 215 226 231 234 204 163 152 136 140 151 165 170 175 183 178 173 187 201 210 224 234 239 244 244 247 250 248 247 249 252 255 258 259 261 262 262
155 160 158 164 172 182 198 208 219 232 235 242 238 170 161 148 147 159 167 172 181 182 183 175 169 180 197 222 234 241 247 248 251 252 253 254 256 258 260 261 264 265 265 265
144 146 149 155 173 188 200 209 221 223 225 232 237 202 170 169 159 166 173 178 182 185 189 189 187 189 216 236 245 246 249 255 262 261 259 260 263 264 266 268 269 270 270 272
150 150 156 155 164 193 202 209 215 220 227 230 224 205 186 183 183 194 206 198 202 212 214 225 234 255 284 278 273 265 261 264 273 276 274 272 272 274 274 275 275 272 274 278
173 177 193 200 203 213 212 219 224 226 233 231 218 209 202 210 218 229 228 228 245 245 250 250 255 271 288 290 292 289 277 274 279 284 285 283 282 282 281 282 283 280 281 280
202 217 226 234 234 243 238 237 240 246 248 240 226 218 223 226 234 243 249 243 244 245 246 253 274 288 295 299 299 299 297 294 298 300 296 288 288 291 291 291 290 289 286 282
239 244 245 251 242 242 244 247 253 255 251 246 241 235 234 237 247 253 262 258 250 253 259 268 278 289 292 296 297 301 307 309 310 309 304 299 298 297 298 298 295 293 291 288
251 256 252 252 246 251 245 252 259 261 258 252 250 245 242 244 256 258 256 254 255 261 266 271 275 283 287 293 300 305 308 309 312 314 311 309 307 304 304 303 301 299 297 295
256 257 256 254 251 249 246 251 254 256 258 254 252 253 252 252 256 260 256 258 262 265 263 264 264 270 283 295 304 310 312 310 315 318 317 315 315 313 310 309 308 307 306 303
259 255 254 253 253 255 252 251 254 260 261 253 254 254 254 255 256 260 258 258 261 266 265 263 264 272 284 293 301 307 309 312 313 316 318 318 317 314 312 312 312 310 309 308
256 254 253 254 254 255 253 255 257 262 260 254 256 256 256 261 263 263 262 261 263 267 270 272 273 278 285 292 298 304 306 309 311 314 316 317 316 314 312 312 313 312 312 312
252 252 251 251 253 253 255 258 259 263 260 257 257 259 260 264 264 265 264 264 267 269 271 275 279 283 287 292 297 301 304 306 309 311 312 313 313 313 312 313 313 312 313 314
252 251 249 248 250 253 255 258 260 262 261 259 259 258 261 264 265 265 266 268 268 271 274 277 280 284 288 292 295 298 302 305 307 308 310 311 311 311 311 312 313 313 313 313
252 252 250 249 250 254 256 258 260 262 261 259 259 259 259 260 264 268 271 270 269 272 275 280 284 288 292 294 296 299 302 305 307 308 309 310 310 310 310 312 312 312 313 313
253 251 251 251 252 253 255 257 260 261 261 261 260 260 261 261 264 268 271 271 271 273 275 279 284 288 292 295 296 298 301 305 307 309 311 311 311 309 309 310 311 311 311 312
253 253 252 252 253 253 254 257 258 259 260 261 261 262 262 262 264 267 270 271 274 275 277 280 285 288 292 295 297 299 301 304 306 308 310 310 310 308 307 308 309 309 310 311
Height
5633 5637 5639 5641 5642 5643 5644 5645 5646 5647 5648 5649 5650 5651 5653 5653 5654 5656 5658 5660 5663 5666 5670 5674 5678 5682 5687 5693 5698 5704 5709 5714 5719 5724 5729 5733 5738 5743 5747 5752 5755 5759 5763 5767
5633 5635 5636 5638 5639 5640 5641 5642 5643 5645 5645 5646 5647 5648 5649 5650 5651 5652 5654 5656 5659 5661 5665 5669 5672 5676 5680 5685 5690 5695 5700 5705 5710 5715 5720 5724 5729 5733 5738 5743 5746 5750 5754 5757
5630 5633 5634 5636 5637 5639 5640 5641 5642 5643 5643 5644 5645 5646 5647 5647 5648 5649 5651 5652 5655 5657 5660 5664 5667 5670 5674 5678 5683 5687 5692 5697 5702 5706 5710 5715 5719 5724 5729 5734 5738 5742 5745 5749
5629 5631 5633 5634 5636 5637 5639 5640 5641 5642 5642 5643 5644 5644 5645 5646 5646 5647 5648 5650 5652 5654 5657 5659 5662 5666 5669 5673 5676 5680 5685 5689 5693 5697 5702 5706 5710 5715 5720 5725 5729 5733 5737 5740
5629 5630 5632 5634 5636 5637 5639 5640 5640 5641 5642 5643 5643 5643 5645 5644 5645 5645 5646 5647 5649 5651 5653 5656 5659 5662 5665 5668 5671 5675 5679 5682 5686 5690 5693 5697 5701 5706 5711 5716 5721 5725 5728 5731
5629 5631 5632 5634 5635 5637 5638 5640 5641 5641 5642 5643 5643 5643 5644 5644 5644 5644 5644 5645 5647 5648 5651 5653 5656 5659 5662 5665 5668 5671 5674 5677 5680 5683 5686 5690 5694 5699 5704 5708 5712 5716 5719 5722
5630 5631 5633 5634 5636 5638 5639 5641 5642 5642 5642 5643 5643 5643 5644 5643 5643 5643 5643 5644 5645 5647 5649 5651 5653 5656 5659 5662 5664 5667 5669 5672 5674 5677 5681 5684 5688 5692 5696 5700 5703 5707 5710 5712
5630 5633 5634 5635 5637 5638 5639 5641 5643 5643 5643 5643 5643 5643 5644 5643 5642 5642 5642 5643 5645 5646 5648 5650 5652 5654 5656 5658 5661 5663 5665 5667 5669 5672 5675 5679 5682 5685 5689 5692 5695 5698 5701 5703
5632 5634 5635 5636 5637 5639 5640 5641 5643 5643 5643 5644 5644 5644 5644 5643 5643 5642 5643 5644 5645 5646 5648 5649 5650 5652 5654 5655 5657 5660 5662 5664 5666 5668 5671 5673 5676 5678 5681 5684 5686 5689 5692 5694
5633 5635 5636 5637 5639 5640 5642 5642 5643 5644 5644 5644 5644 5644 5644 5643 5643 5643 5644 5644 5645 5646 5647 5649 5650 5651 5652 5653 5655 5656 5658 5659 5661 5663 5665 5667 5669 5672 5674 5677 5679 5681 5683 5684
5634 5636 5638 5639 5640 5641 5643 5644 5644 5644 5644 5645 5644 5647 5645 5644 5644 5645 5645 5645 5646 5646 5647 5648 5649 5650 5651 5651 5652 5653 5654 5656 5657 5658 5659 5661 5663 5665 5667 5669 5670 5672 5673 5674
5636 5638 5639 5640 5641 5642 5643 5644 5644 5645 5645 5645 5645 5649 5645 5645 5645 5645 5646 5646 5646 5647 5647 5648 5649 5649 5650 5650 5650 5650 5651 5652 5653 5653 5654 5656 5657 5659 5660 5661 5662 5663 5664 5664
5638 5640 5641 5642 5645 5644 5644 5644 5645 5645 5645 5645 5645 5649 5645 5645 5646 5646 5646 5646 5647 5647 5648 5648 5649 5649 5649 5648 5648 5648 5649 5649 5649 5649 5650 5651 5652 5653 5654 5654 5654 5654 5654 5654
5640 5641 5643 5644 5644 5644 5645 5645 5645 5645 5645 5645 5646 5646 5646 5646 5646 5646 5646 5646 5646 5647 5647 5647 5648 5648 5647 5647 5646 5646 5646 5646 5646 5646 5646 5647 5647 5647 5647 5647 5647 5646 5646 5645
5642 5643 5643 5644 5644 5644 5645 5645 5645 5645 5645 5645 5646 5646 5646 5646 5646 5646 5646 5646 5646 5646 5646 5646 5647 5647 5646 5645 5645 5644 5643 5644 5643 5643 5642 5642 5642 5642 5641 5641 5640 5638 5637 5636
5643 5643 5644 5645 5645 5645 5645 5645 5645 5645 5645 5645 5645 5646 5646 5646 5646 5646 5646 5646 5646 5645 5645 5645 5645 5645 5644 5644 5643 5642 5642 5641 5641 5640 5639 5639 5638 5637 5636 5634 5632 5630 5628 5627
5643 5644 5644 5645 5645 5645 5646 5645 5645 5645 5644 5644 5644 5646 5645 5645 5645 5645 5645 5645 5644 5644 5644 5644 5644 5644 5643 5643 5642 5641 5640 5640 5639 5638 5637 5635 5634 5632 5630 5627 5624 5622 5619 5617
5644 5644 5644 5644 5646 5645 5648 5645 5644 5644 5644 5644 5644 5644 5644 5645 5644 5644 5644 5644 5644 5644 5643 5643 5643 5643 5642 5642 5641 5640 5639 5638 5637 5635 5634 5632 5629 5627 5624 5621 5618 5615 5612 5609
5643 5643 5643 5644 5644 5644 5645 5644 5643 5643 5643 5643 5642 5643 5643 5643 5643 5643 5643 5642 5642 5642 5642 5642 5642 5642 5641 5640 5639 5638 5637 5636 5634 5632 5629 5627 5624 5621 5618 5615 5611 5608 5605 5602
5641 5642 5642 5642 5642 5643 5645 5643 5642 5643 5643 5642 5641 5641 5641 5641 5642 5642 5641 5641 5640 5641 5641 5640 5640 5640 5639 5638 5637 5636 5634 5633 5630 5628 5625 5622 5619 5616 5612 5609 5606 5602 5599 5595
5639 5640 5640 5640 5640 5641 5642 5641 5642 5643 5643 5641 5640 5640 5640 5640 5640 5640 5639 5639 5639 5638 5638 5638 5637 5637 5636 5635 5634 5633 5631 5629 5626 5623 5620 5617 5614 5611 5607 5604 5600 5596 5593 5589
5635 5636 5637 5637 5637 5640 5638 5639 5639 5640 5639 5638 5638 5638 5638 5638 5637 5637 5637 5636 5636 5635 5635 5635 5634 5634 5633 5632 5630 5628 5626 5624 5621 5619 5616 5612 5608 5605 5601 5598 5594 5590 5586 5582
5631 5632 5632 5634 5636 5635 5634 5635 5635 5635 5635 5635 5635 5635 5635 5635 5634 5634 5633 5633 5633 5632 5632 5631 5630 5629 5628 5627 5626 5624 5622 5619 5616 5613 5610 5606 5602 5598 5595 5591 5587 5583 5579 5574
5626 5626 5627 5628 5630 5630 5630 5630 5630 5631 5631 5631 5631 5632 5632 5631 5631 5630 5630 5629 5629 5628 5627 5627 5626 5625 5623 5622 5620 5618 5616 5613 5610 5607 5603 5600 5596 5592 5588 5584 5580 5576 5572 5567
5620 5620 5621 5622 5624 5623 5624 5624 5625 5625 5626 5626 5627 5627 5627 5627 5626 5626 5625 5625 5624 5623 5623 5622 5621 5620 5618 5616 5614 5612 5610 5607 5604 5600 5596 5592 5588 5585 5581 5576 5572 5568 5564 5559
5614 5614 5614 5616 5617 5617 5618 5618 5619 5620 5620 5620 5620 5621 5621 5621 5621 5620 5620 5619 5619 5618 5617 5616 5615 5614 5612 5610 5608 5606 5603 5600 5597 5593 5589 5585 5581 5577 5573 5569 5564 5560 5556 5551